OPS 4682 DEB, 18784

Orbit data source: Space-Track

OPS 4682 DEB, 18784 is space debris in LEO originally from a launch on Sat, 03 Apr 1965 UTC launched from the Air Force Western Test Range (AFWTR). Debris objects in space refer to the collection of defunct objects orbiting the Earth. Examples of debris include non-operational satellites, rocket bodies, and fragments generated from explosions, collisions, or faulty payload assembly.

Loading next visibility...
Identifier
18784, 1965-027AL
Orbit
LEO
Country
Flag of USUS
Related business
Manufacturer
Unknown
Mission
Spacecraft
Bus & Motor
Unknown
Mass
Unknown
Launch date (UTC)
1965-04-03 (61 years ago)
Launch vehicle
Unknown
Launch site
Air Force Western Test Range (AFWTR)
Object type
Payload
Rocket body
Debris
Shape & HBR
Unknown shape, 0.1 m
Radar Cross Section
Small (<0.1 m²)

Expand to show TLE details & history
Last TLE update: 1 day ago

TLE from 1 day ago
0 OPS 4682 DEB
1 18784U 65027AL  25348.83536649  .00000608  00000-0  20787-2 0  9994
2 18784  90.2480   0.1556 0039860 239.8584 301.1341 12.96991972778487
Epoch: 2025-12-14T20:02Z
TLE epoch observation values (Epoch: 2025-12-14T20:02:55.664Z)
Latitude
-0.71676°
Longitude
155.678°
Altitude
1,261.186 km
Speed
7.232 km/s
True Right ascension
12h 00m 36s
True Declination
0° 42' 46"
Sunlit
Object was in daylight at epoch
Visualization orbit readout
Latitude
Unknown
Longitude
Unknown
Altitude
Unknown
Speed
Unknown
Apparent Right ascension
Unknown
Apparent Declination
Unknown
Sunlit
N/A
Visualization observer readout
Local Sidereal Time
05:18:50
Azimuth
Unknown
Elevation
Unknown
Doppler factor
Unknown
Orbital elements
Apogee altitude
1,301.516 km
Perigee altitude
1,240.537 km
Semi-major axis
7,649.163 km
Eccentricity
0.00399
Inclination
90.248°
RAAN
0.1556°
Arg. of periapsis
239.8584°
True anomaly
300.74212°
Mean anomaly
301.1341°
Eccentric anomaly
300.93821°
Mean motion
3.24431 °/min
Orbital period
110.96 mins
BSTAR
0.0020787
Loading maneuver chart data...
Computing Atmospheric mass density...
Loading historical data...
Loading historical data...
Loading historical data...
Loading historical data...
Loading historical data...
Loading historical data...
Loading historical data...

Documentation

Showing up to 5 results
|